STARLINK-2714, 48603

Orbit data source: Space-Track

STARLINK-2714, 48603 is a payload satellite owned by SpaceX/Seattle (US) in LEO that was launched on Sat, 15 May 2021 UTC via an FALCON 9 launch vehicle from the Air Force Eastern Test Range (AFETR). Payload-class satellites include a variety of spacecraft equipped with specific instruments for various scientific and technological missions. These include communications satellites like Starlink; space stations such as the ISS; scientific satellites like the Hubble; Earth observation satellites from companies like Planet Labs, Umbra, and HawkEye 360; GPS; miniature CubeSats for education and research; and military/defense satellites.

Loading next visibility...
Identifier
48603, 2021-041BC
Orbit
LEO
Country
Flag of USUS
Related business
Manufacturer
SpaceX/Seattle
Mission
Operational Commercial Communications
Bus & Motor
STARLINK, Unknown motor
Mass
260 kg wet, ~248 kg dry
Launch date (UTC)
2021-05-15 (5 years ago)
Launch vehicle
FALCON 9
Launch site
Air Force Eastern Test Range (AFETR)
Object type
Payload
Rocket body
Debris
Shape & HBR
Box + 1 Pan, 10.1 m
Radar Cross Section
13.562 m², Large (>1 m²)

Expand to show TLE details & history
Last TLE update: 22 hours ago

TLE from 22 hours ago
0 STARLINK-2714
1 48603U 21041BC  25348.78135073  .00000276  00000-0  37447-4 0  9999
2 48603  53.0549 132.7859 0001418  87.5808 272.5343 15.06391133253956
Epoch: 2025-12-14T18:45Z
TLE epoch observation values (Epoch: 2025-12-14T18:45:08.703Z)
Latitude
-0.00003°
Longitude
127.81028°
Altitude
548.075 km
Speed
7.589 km/s
True Right ascension
08h 51m 08s
True Declination
0° 00' 00"
Sunlit
Object was in full shadow at epoch
Visualization orbit readout
Latitude
Unknown
Longitude
Unknown
Altitude
Unknown
Speed
Unknown
Apparent Right ascension
Unknown
Apparent Declination
Unknown
Sunlit
N/A
Visualization observer readout
Local Sidereal Time
15:07:27
Azimuth
Unknown
Elevation
Unknown
Doppler factor
Unknown
Orbital elements
Apogee altitude
548.491 km
Perigee altitude
546.527 km
Semi-major axis
6,925.646 km
Eccentricity
0.00014
Inclination
53.0549°
RAAN
132.7859°
Arg. of periapsis
87.5808°
True anomaly
272.51807°
Mean anomaly
272.5343°
Eccentric anomaly
272.52618°
Mean motion
3.76576 °/min
Orbital period
95.6 mins
BSTAR
0.000037447
Loading maneuver chart data...
Computing Atmospheric mass density...
Loading historical data...
Loading historical data...
Loading historical data...
Loading historical data...
Loading historical data...
Loading historical data...
Loading historical data...

Documentation

Showing up to 5 results
|